Tracking 19485 objects as of 21-Jan-2019
HD Live streaming from Space Station
objects crossing your sky now

IRIDIUM 91

Track IRIDIUM 91 now!
10-day predictions
IRIDIUM 91 is classified as:


NORAD ID: 27372
Int'l Code: 2002-005A
Perigee: 783.5 km
Apogee: 786.1 km
Inclination: 86.4 °
Period: 100.4 minutes
Semi major axis: 7155 km
RCS: 3.6092 m2 (large)
Launch date: February 11, 2002
Source: United States (US)
Launch site: AIR FORCE WESTERN TEST RANGE (AFWTR)

Spare; stored in 667 km storage orbit, not raised to 780 km operational orbit until needed
aabbcc
Your satellite tracking list
Your tracking list is empty




NASA's NSSDC Master Catalog

Two Line Element Set (TLE):
1 27372U 02005A   19019.67757946 +.00000017 +00000-0 -99007-6 0  9999
2 27372 086.3942 044.1450 0001782 079.2745 280.8651 14.34219601894928
Source of the keplerian elements: AFSPC